Theta_e
298 298 292 294 292 293 292 290 289 292 295 292 291 293 297 299 301 300 302 303 305 308 312 314 315 316 316 315 315 314 314 315 312 312 311 312 311 312 314 316 319 318 319 321
295 292 297 299 296 295 293 290 289 292 295 291 291 293 296 298 299 300 300 302 304 306 308 310 311 313 314 314 315 315 314 315 314 314 314 314 313 313 315 315 317 318 320 322
292 295 300 298 295 293 290 289 289 290 293 292 290 288 293 298 299 302 302 302 303 305 307 309 311 311 313 313 315 315 314 314 316 315 313 313 312 312 312 313 315 317 319 322
295 298 298 295 295 293 287 294 293 292 289 285 289 281 287 293 295 298 300 300 301 303 307 308 310 311 313 314 315 315 315 316 318 317 314 313 310 309 311 312 314 314 317 319
294 294 294 293 294 295 292 295 291 292 286 285 286 283 285 292 292 294 299 302 302 302 304 306 307 310 312 314 315 316 316 317 317 317 316 315 312 311 312 313 313 311 314 317
295 299 297 295 298 296 295 291 288 285 284 279 284 284 283 288 292 295 299 302 304 303 303 304 306 308 310 313 314 314 314 314 315 315 314 312 310 311 311 311 311 310 311 314
295 295 298 299 294 294 291 285 278 279 277 277 285 284 283 292 296 297 299 300 302 303 302 303 304 305 306 307 310 310 313 312 314 314 313 313 313 312 312 312 312 310 310 311
288 288 294 298 293 289 287 285 279 276 275 279 285 280 287 295 296 298 300 299 300 300 300 301 303 303 304 306 307 307 308 308 308 309 309 310 310 311 311 312 311 309 310 311
287 289 295 297 296 293 288 284 286 282 280 278 281 286 293 295 294 295 297 298 297 297 298 299 300 302 302 304 304 303 304 305 305 306 307 306 307 309 309 310 310 311 311 312
291 285 293 296 295 295 291 292 282 281 276 276 280 282 284 289 291 293 294 295 296 297 297 298 299 301 302 301 302 301 303 304 304 304 304 305 305 307 309 310 309 309 309 309
291 286 287 290 289 287 289 286 285 284 281 277 276 280 289 290 292 293 294 295 295 296 296 297 298 300 300 301 300 299 301 301 302 303 303 303 304 305 306 306 306 307 307 307
292 286 282 285 292 293 291 288 286 278 279 281 280 283 294 293 294 295 295 295 296 296 297 298 299 299 299 299 299 299 300 302 302 303 302 302 303 304 303 304 304 305 305 306
292 283 276 281 287 290 289 291 288 285 282 280 275 280 293 294 294 295 293 294 296 297 297 299 299 300 301 301 299 301 301 301 301 301 301 301 302 302 302 302 303 304 304 304
296 284 281 278 283 287 287 290 290 286 275 281 282 285 290 291 292 293 294 295 296 296 297 299 299 300 301 300 300 300 300 299 299 300 299 300 301 302 302 302 302 302 303 302
290 285 285 287 289 290 290 290 290 287 286 282 285 286 290 291 292 294 295 295 297 297 298 299 299 299 300 299 298 299 299 299 300 298 297 298 301 301 301 301 302 302 302 302
289 283 286 287 292 291 290 291 291 290 290 289 289 287 292 294 293 293 294 296 296 297 297 298 299 298 297 297 297 298 298 298 298 297 297 299 299 300 300 300 300 300 301 301
286 285 284 283 289 288 282 287 289 290 291 289 285 289 292 293 293 294 295 296 296 296 297 297 296 296 296 296 297 296 297 298 298 298 299 299 299 300 300 300 302 301 300 300
287 286 284 282 284 277 286 294 294 292 293 293 292 291 292 292 295 295 297 296 295 296 296 295 295 295 296 297 296 297 298 298 298 298 298 299 299 299 300 300 300 301 302 300
290 288 282 279 279 284 288 291 286 283 286 292 290 292 292 294 293 292 294 295 297 296 295 294 295 296 296 296 297 297 297 298 298 297 298 298 299 299 299 298 299 299 299 299
290 288 284 280 277 276 284 293 296 292 279 291 293 292 291 291 286 290 297 298 296 295 295 295 296 296 296 296 298 297 297 297 296 297 298 299 299 299 298 299 299 300 300 299
283 282 281 279 277 282 289 294 296 279 283 291 291 292 291 288 291 295 296 295 295 295 295 296 296 295 296 297 298 296 296 296 298 299 299 299 299 299 299 299 300 300 299 299
282 278 278 279 277 277 294 293 284 289 290 292 292 293 292 293 294 294 294 293 293 293 294 295 295 295 297 298 297 296 296 298 299 299 298 298 298 299 300 299 299 299 299 298
281 285 281 283 282 289 293 293 294 293 292 294 291 294 294 292 292 293 292 292 293 294 295 296 296 295 297 297 297 296 297 299 299 299 298 298 299 299 300 299 299 299 299 299
287 288 286 286 289 291 293 295 295 295 294 295 295 294 293 291 292 291 291 293 293 294 295 296 296 295 295 297 298 298 300 302 300 298 298 298 298 299 300 299 299 301 300 302
288 289 287 287 291 291 293 294 295 296 296 296 296 294 293 291 292 291 292 293 294 295 295 296 295 295 295 297 298 300 303 302 299 298 298 299 299 299 299 295 293 298 299 300
289 289 285 285 291 290 291 295 295 294 295 296 294 293 293 291 291 292 292 294 294 294 295 295 295 295 296 298 299 302 303 303 300 298 299 299 300 301 299 298 297 293 292 292
Wind_Speed
6 12 5 6 3 3 3 4 3 1 4 4 7 6 8 9 14 15 14 12 11 12 9 10 10 8 9 8 7 6 4 4 2 3 2 2 1 1 2 2 4 5 5 6
8 6 5 5 5 6 6 3 3 3 3 2 6 5 3 7 6 6 7 10 10 6 9 9 8 8 8 6 5 3 1 4 5 4 3 2 2 2 2 1 2 4 3 3
7 5 6 6 7 6 4 4 2 3 4 3 6 2 3 2 5 7 7 6 7 7 7 5 7 7 6 5 3 5 5 5 2 2 2 2 2 2 2 1 1 0 1 1
6 5 7 8 7 3 2 1 2 4 3 4 2 5 3 2 6 6 8 8 8 8 7 6 7 4 3 6 7 8 5 2 3 4 3 3 2 3 3 3 3 3 2 2
3 5 6 10 3 3 4 3 2 2 3 3 4 4 4 2 4 5 7 6 6 6 6 8 8 7 7 8 9 6 4 7 8 8 9 5 5 4 3 2 5 4 3 3
3 1 5 3 2 4 4 2 8 5 3 3 1 5 4 1 2 1 3 5 6 7 7 6 5 4 5 5 6 5 6 6 7 5 7 6 7 6 3 4 5 4 3 2
4 2 1 4 6 6 10 7 6 7 6 5 1 2 3 2 3 1 1 4 6 6 7 8 8 8 8 8 8 8 8 8 10 10 12 10 8 8 7 7 6 5 3 3
1 5 5 7 2 2 4 4 7 4 3 5 6 4 4 1 3 5 5 4 4 8 7 7 8 8 8 8 8 7 7 7 7 6 9 9 8 7 7 8 6 5 5 4
2 2 2 5 4 4 3 6 1 3 2 2 3 1 5 1 7 7 7 7 8 8 7 7 7 7 8 8 9 8 8 7 7 7 8 8 7 7 8 8 5 4 4 4
3 2 2 2 4 7 7 2 5 5 2 6 5 3 5 1 3 4 2 4 8 7 8 8 9 11 9 8 8 8 8 8 7 8 8 8 7 6 5 4 5 5 4 4
3 4 5 3 3 1 4 3 6 3 4 4 5 5 5 4 2 6 8 8 9 10 10 10 11 12 11 10 8 8 8 8 11 11 10 9 10 11 7 6 6 7 6 7
1 5 1 1 4 1 3 3 5 6 5 5 3 9 4 7 3 4 7 9 10 9 10 12 13 13 11 11 11 9 8 14 15 12 10 11 15 14 13 8 8 7 8 7
6 2 4 7 7 4 2 2 4 4 4 6 4 7 4 2 4 5 8 9 11 11 12 12 13 13 15 15 11 10 10 11 12 12 17 18 15 12 11 10 9 7 7 8
7 3 7 7 7 3 3 3 3 5 3 4 7 8 10 7 6 8 10 11 12 11 12 13 13 15 15 13 10 13 14 12 16 12 14 16 14 12 11 9 8 9 10 11
5 4 5 5 6 4 5 7 6 7 7 5 6 6 11 6 7 11 11 12 16 17 16 15 16 17 16 15 16 15 13 15 14 15 15 15 15 11 10 11 11 10 10 10
3 1 2 4 6 4 6 8 8 6 2 4 6 13 3 6 6 7 12 14 18 18 17 18 19 20 18 19 17 16 16 15 14 16 16 15 16 14 13 12 11 11 10 10
2 5 3 5 4 6 7 4 3 0 2 4 6 9 4 11 12 13 14 19 18 17 18 22 20 18 17 17 17 18 17 15 15 16 13 15 15 13 12 14 13 11 11 10
6 5 3 3 4 2 3 1 2 2 7 9 9 4 8 12 13 10 14 15 16 16 20 18 16 17 16 17 17 17 15 16 15 14 15 14 13 13 12 12 11 10 6 7
3 5 2 2 2 6 2 2 1 4 9 5 4 7 9 12 8 9 9 5 14 19 16 16 17 18 18 18 18 16 15 15 14 14 14 13 12 11 11 11 11 7 8 8
6 5 5 3 1 5 5 3 3 5 5 3 6 10 12 6 11 15 17 17 18 16 15 17 19 18 17 18 17 16 16 15 15 14 13 12 11 11 11 11 8 7 8 9
2 3 2 2 4 8 5 5 3 5 9 5 4 9 7 4 7 18 17 19 16 17 19 19 18 16 18 17 16 16 15 16 14 12 11 11 9 10 10 9 8 8 8 9
6 5 4 2 2 7 6 2 6 8 5 5 6 7 7 10 14 14 18 18 19 21 20 19 17 17 17 17 15 15 15 15 12 10 10 9 9 8 7 8 8 8 8 9
2 7 6 9 8 6 5 8 6 4 6 8 4 8 8 9 13 15 17 18 18 19 17 16 15 17 16 16 14 14 16 14 10 8 9 8 8 8 8 8 8 6 6 6
3 3 3 2 4 7 5 5 6 5 7 8 7 9 6 8 13 16 15 17 16 16 16 16 16 17 17 16 15 15 15 12 6 7 6 5 6 7 7 4 5 4 3 3
5 6 4 5 8 6 6 6 6 7 6 7 7 5 7 7 14 13 16 16 16 16 16 15 15 15 17 16 15 15 12 5 4 4 4 4 5 6 1 3 5 4 4 3
6 8 6 7 8 6 7 6 4 6 7 7 5 7 7 5 12 14 15 14 14 16 17 15 15 16 16 16 14 12 11 4 3 2 2 3 4 2 3 3 4 13 12 12
Wind_Direction
6 55 19 307 224 162 105 92 86 174 342 82 46 65 10 349 28 14 8 8 25 34 22 45 65 68 78 54 51 21 353 321 318 26 41 47 17 11 48 67 70 34 19 14
31 62 310 300 49 84 51 93 7 326 338 108 96 96 41 17 18 13 346 7 5 32 45 36 40 52 65 70 46 32 5 1 20 21 360 12 341 309 269 309 75 53 49 62
96 316 348 72 40 59 41 85 351 229 351 21 118 27 41 43 29 13 15 4 17 10 15 70 72 68 75 74 62 46 17 6 14 16 316 261 232 256 287 324 258 99 329 39
79 318 60 55 50 68 70 239 265 241 114 229 42 266 241 112 31 17 5 14 9 8 2 18 18 25 156 168 163 159 160 220 259 254 255 233 226 237 238 245 228 247 206 199
224 17 32 55 2 345 229 350 7 336 108 75 345 75 255 75 36 7 350 10 5 2 12 11 6 3 347 347 336 315 212 211 214 206 206 214 238 228 234 270 276 268 268 259
156 215 55 343 26 43 295 29 36 48 74 44 240 100 293 15 97 333 325 348 353 358 357 1 0 360 342 333 340 328 318 308 317 336 316 278 282 292 250 237 251 248 224 223
352 20 78 40 23 16 42 44 357 5 8 223 66 15 257 327 41 19 124 13 352 353 3 346 352 341 337 335 334 334 329 319 318 325 315 304 290 274 253 237 242 249 249 208
47 323 22 329 57 274 36 111 143 266 231 261 322 240 221 286 29 31 43 26 4 7 4 344 339 334 327 319 313 317 315 308 303 289 283 288 284 285 279 258 227 218 216 215
109 316 2 62 45 103 343 38 205 117 21 25 255 326 307 303 24 4 12 26 356 330 326 313 306 297 295 292 293 290 290 286 296 296 303 304 305 296 281 275 255 244 212 216
186 314 14 312 44 16 99 150 32 9 345 305 279 243 235 168 261 261 329 297 280 281 298 298 298 301 297 274 264 278 280 277 289 296 281 277 282 285 286 266 251 243 245 240
106 98 289 53 46 229 7 28 56 108 141 212 299 254 214 192 0 335 321 325 322 315 306 293 293 298 292 290 275 254 259 261 287 292 270 274 283 278 250 231 231 230 235 231
50 136 290 249 290 314 290 126 119 118 277 229 192 276 143 160 198 280 307 299 291 284 283 289 289 289 288 279 274 271 278 299 304 288 268 281 290 274 260 240 237 237 239 239
185 358 18 352 355 350 211 206 126 102 80 217 150 264 188 270 293 284 285 288 290 283 284 291 295 293 293 294 288 288 305 306 308 296 294 291 284 267 259 254 248 244 246 248
91 129 156 189 216 173 271 241 253 158 131 230 229 284 304 312 314 311 300 296 293 291 287 291 293 293 294 284 284 303 302 302 302 295 303 296 287 273 272 255 242 247 253 254
103 196 184 236 241 211 233 251 235 206 225 180 272 267 287 298 298 305 303 297 308 308 304 301 299 308 305 307 308 300 298 299 293 295 294 289 287 278 272 269 268 256 250 249
9 214 128 282 259 238 252 256 228 247 293 268 294 289 202 287 285 294 302 300 304 300 302 304 310 313 312 308 306 301 298 292 290 287 284 288 287 282 272 265 263 264 256 254
105 128 99 263 359 334 316 275 169 226 234 215 271 277 299 312 309 310 304 302 295 296 306 312 313 308 305 302 301 298 296 294 290 288 280 286 287 285 284 282 272 255 256 253
137 117 139 262 6 279 244 52 123 250 277 265 277 266 278 279 284 286 284 282 290 297 308 307 306 300 302 299 295 292 291 290 287 283 283 282 279 275 281 280 274 269 249 247
131 127 116 131 206 284 196 213 107 134 272 277 210 272 286 294 315 291 273 261 295 306 307 309 302 303 302 300 298 296 291 287 286 283 282 282 283 280 277 276 275 256 267 260
73 70 119 116 151 266 226 250 119 121 293 232 226 270 282 335 319 313 325 319 310 315 308 302 300 301 299 298 299 296 291 291 285 284 283 284 284 281 276 273 268 267 260 262
23 19 169 142 227 284 227 242 122 72 265 236 228 269 284 268 248 298 309 309 316 309 308 308 308 304 300 299 297 293 291 285 286 284 282 282 281 278 275 274 266 258 259 259
177 144 204 90 262 290 186 132 155 221 283 252 273 269 271 273 292 297 307 313 316 314 313 311 307 304 303 300 297 292 289 287 286 281 278 279 281 282 282 276 271 258 252 256
263 183 184 172 216 228 218 214 236 176 238 268 244 274 269 282 295 306 309 313 315 310 309 310 306 305 302 301 301 294 289 292 284 276 274 282 285 279 276 269 263 258 247 252
250 152 206 62 267 239 250 252 246 220 234 270 252 269 275 274 301 305 312 312 312 314 314 311 310 309 307 308 305 300 299 294 272 271 281 288 286 295 297 317 298 237 248 268
202 142 185 263 282 290 274 233 254 281 278 276 282 253 273 287 301 305 312 311 311 315 315 315 313 309 308 308 307 307 305 308 284 280 292 297 288 299 334 57 5 354 24 27
185 186 159 224 232 181 248 270 273 268 273 278 281 303 295 264 298 304 310 306 313 317 315 315 314 315 315 315 313 318 320 303 264 303 333 306 313 5 8 27 34 42 48 44